SCP
3 4 5 5 4 3 4 4 4 3 3 2 2 1 1 1 1 1 1 1 1 1 1 1 1 1 1 1 1 1 1 1 1 1 1 0 0 0 0 0 0 0 0
3 4 5 5 4 3 3 4 4 4 3 2 2 1 1 1 1 1 1 1 1 1 1 1 1 1 1 1 1 1 1 1 1 0 0 0 0 0 0 0 0 0 0
3 4 5 5 4 3 3 3 3 3 3 2 2 1 1 1 1 1 1 1 1 1 1 1 1 1 1 1 1 1 1 1 1 0 0 0 0 0 0 0 0 0 0
3 3 4 5 5 4 3 3 2 2 3 2 2 2 2 1 1 1 1 1 1 1 1 1 1 1 1 1 1 1 1 1 0 0 0 0 0 0 0 0 0 0 0
3 3 4 5 5 4 3 3 2 2 2 2 2 2 2 1 1 1 1 1 1 1 1 1 1 1 1 1 1 1 0 0 0 0 0 0 0 0 0 0 0 0 0
4 3 3 4 4 4 3 3 2 2 2 2 2 2 2 2 1 1 2 2 1 1 1 1 1 1 1 1 1 1 1 0 0 0 0 0 0 0 0 1 0 0 0
4 3 3 4 4 4 3 3 2 2 2 2 2 2 2 2 2 2 2 2 2 2 2 1 1 1 1 1 1 1 1 0 0 0 0 0 0 1 1 1 1 0 0
4 4 3 3 3 3 3 3 3 2 2 2 2 2 2 2 2 2 2 2 2 2 2 2 2 2 1 1 1 1 1 0 0 0 0 0 0 1 1 1 1 1 0
4 4 3 3 3 3 3 3 3 2 2 2 2 2 2 2 2 2 2 2 2 2 2 2 2 2 1 1 1 1 1 1 1 0 0 0 0 1 1 1 1 1 1
4 4 3 3 2 3 3 3 3 2 2 2 2 2 2 2 2 1 1 1 2 2 2 1 2 2 1 1 1 1 1 1 1 1 1 1 1 1 2 2 2 1 1
3 3 3 3 2 2 3 3 3 2 2 2 2 2 2 2 2 1 1 1 1 1 1 1 1 1 1 1 1 1 1 1 1 1 1 1 1 1 2 3 2 1 1
3 3 3 3 2 2 3 3 3 3 2 2 1 1 2 2 2 1 1 1 1 1 1 1 1 1 1 1 1 1 1 1 1 1 1 1 1 2 2 3 2 2 1
4 4 3 3 2 2 2 3 3 3 2 2 1 1 1 2 2 2 1 1 1 1 1 1 1 1 1 1 1 1 1 1 1 1 1 1 2 2 2 2 2 2 2
5 4 4 3 3 2 2 3 3 3 3 2 2 1 1 1 2 2 2 1 1 1 1 1 1 1 1 1 1 1 1 1 1 0 0 1 1 1 2 2 2 2 1
5 5 5 4 3 3 2 2 3 3 3 2 2 1 1 1 2 2 1 1 1 1 1 1 1 1 1 1 1 1 1 1 1 1 0 0 1 1 1 1 1 1 1
5 5 6 5 4 3 2 2 3 3 3 2 2 1 1 1 1 1 1 1 1 1 1 1 1 1 1 1 1 1 1 1 1 1 1 0 1 1 1 1 1 1 1
4 4 5 4 3 2 2 2 3 3 3 2 2 1 1 1 1 1 1 1 1 1 1 1 1 1 1 1 1 1 1 0 0 1 1 1 1 1 1 1 1 1 1
3 3 4 4 3 2 2 2 3 3 3 2 2 2 1 1 1 1 1 1 1 1 1 1 1 1 1 1 1 1 1 0 0 0 0 0 1 1 1 1 1 1 1
2 3 3 3 3 2 2 2 3 3 3 3 2 2 2 1 1 1 1 1 1 1 1 1 1 1 1 1 1 1 1 0 0 0 0 0 0 0 0 0 0 0 1
2 2 3 3 3 2 2 2 3 4 3 3 2 2 2 2 2 1 1 1 1 1 1 1 1 1 1 1 1 1 1 0 0 0 0 0 0 0 0 0 0 0 0
2 3 3 3 2 2 2 2 3 3 3 3 2 2 2 2 1 1 1 1 1 1 1 1 1 1 1 1 1 1 1 1 0 0 0 0 0 0 0 0 0 0 0
3 3 3 2 2 2 2 2 3 3 3 2 2 2 1 1 1 1 1 1 1 1 1 1 1 1 0 1 1 1 0 0 0 0 0 0 0 0 0 0 0 0 0
3 3 2 2 2 1 1 2 2 2 2 1 1 1 1 1 1 1 1 1 1 1 1 0 0 0 0 0 0 0 0 0 0 0 0 0 0 0 0 0 0 0 0
2 2 2 2 1 1 1 1 2 1 1 1 1 0 0 0 1 1 1 1 1 0 0 0 0 0 0 0 0 0 0 0 0 0 0 0 0 0 0 0 0 0 0
1 1 1 1 1 1 0 1 1 1 0 0 0 0 0 0 0 0 0 0 0 0 0 0 0 0 0 0 0 0 0 0 0 0 0 0 0 0 0 0 0 0 0
0 0 0 1 0 0 0 0 0 0 0 0 0 0 0 0 0 0 0 0 0 0 0 0 0 0 0 0 0 0 0 0 0 0 0 0 0 0 0 0 0 0 0
Wind_Speed
8 9 10 10 10 9 9 9 8 8 8 8 8 8 8 8 8 8 8 8 7 7 7 7 7 7 8 8 9 9 9 9 9 9 9 9 9 9 9 8 8 7 10
10 10 10 9 9 9 9 9 8 8 8 7 8 8 7 7 7 7 7 7 7 7 7 8 8 7 7 7 7 7 7 7 7 7 6 5 6 7 9 9 9 6 9
10 11 10 9 9 9 9 9 9 8 8 7 7 7 7 7 7 6 6 7 6 7 7 7 7 7 7 6 6 6 5 4 3 2 2 2 4 7 8 8 8 8 8
9 9 9 10 9 8 9 9 9 9 8 7 7 7 7 6 6 6 6 6 6 6 6 6 6 6 6 5 5 4 3 1 1 2 1 2 4 7 7 7 7 6 6
9 8 9 10 10 9 8 8 8 8 7 7 7 7 6 6 6 6 6 5 6 5 5 5 5 5 5 4 4 2 1 1 3 4 0 3 4 6 6 5 5 5 5
8 9 8 10 9 9 8 8 8 8 7 7 7 7 6 5 5 6 6 5 5 5 5 4 4 4 4 3 3 2 1 3 4 2 1 3 3 5 6 5 4 3 3
8 8 8 9 10 10 8 8 7 7 7 6 6 6 6 6 6 6 6 6 5 4 4 4 3 3 3 2 1 1 3 5 4 2 1 3 3 5 5 4 3 2 2
8 8 7 8 9 10 8 8 7 7 6 6 6 6 5 5 5 5 5 5 5 4 3 3 2 2 2 1 0 1 3 5 5 1 1 3 4 4 4 3 2 2 2
8 8 6 6 7 9 8 7 7 6 5 5 5 5 4 4 5 5 4 4 4 3 2 2 1 1 1 1 1 2 4 6 5 2 0 2 4 4 3 2 2 2 2
6 6 6 6 5 6 6 7 7 6 5 4 4 4 3 3 4 4 3 3 3 2 1 1 0 1 1 2 2 3 5 5 4 2 0 2 4 3 3 3 3 3 3
5 5 5 6 4 4 4 6 5 5 4 3 3 3 3 2 2 3 3 2 2 1 1 1 1 2 2 3 5 5 4 3 3 1 1 3 4 3 3 4 4 4 4
4 4 4 5 4 3 3 3 2 3 2 1 1 2 1 1 1 2 3 2 2 2 2 2 2 2 2 2 4 4 3 4 3 1 2 4 4 3 4 4 5 5 5
4 3 3 4 4 3 2 2 1 2 2 1 1 1 1 1 1 2 1 1 1 2 1 1 2 2 2 2 1 2 3 3 1 0 2 4 4 4 4 4 4 5 6
4 4 3 4 4 3 3 2 2 2 2 1 1 1 1 1 1 1 1 1 1 0 0 1 1 2 2 2 2 3 3 2 1 0 1 3 3 4 5 5 5 6 7
4 3 3 4 4 3 3 1 2 3 3 2 2 2 2 2 2 2 1 1 1 1 1 1 1 2 2 2 2 2 2 2 2 1 1 2 3 3 5 6 7 7 7
4 4 4 4 4 3 3 2 2 3 3 3 2 3 3 2 2 2 1 2 2 1 1 1 2 2 2 1 2 2 2 2 2 2 1 2 3 3 4 5 6 7 7
4 4 4 4 4 3 3 2 3 2 3 3 2 3 3 3 2 2 2 2 2 2 2 1 2 2 2 2 2 2 2 2 2 2 1 1 2 3 4 5 5 6 7
4 4 4 4 4 3 3 2 2 2 3 3 2 2 3 3 3 2 2 2 2 2 2 1 1 2 2 2 2 2 2 2 2 2 1 1 1 1 1 3 4 5 6
5 5 4 4 4 4 3 2 2 2 3 3 2 2 3 3 3 2 2 2 2 2 2 2 1 1 2 2 2 2 2 2 2 2 1 1 1 1 1 1 2 3 4
5 5 5 5 4 3 2 2 1 2 2 2 2 2 3 3 3 3 2 2 2 2 2 2 1 1 1 2 3 3 2 2 2 1 1 1 1 0 1 1 1 1 2
5 5 5 5 4 3 1 1 2 1 1 2 2 3 3 3 3 2 2 2 2 2 2 3 2 1 2 2 2 2 2 2 1 1 1 1 1 1 1 1 0 0 1
5 5 4 4 4 3 2 1 2 2 1 2 2 2 2 2 2 2 2 2 2 2 2 3 3 1 1 2 1 1 2 2 2 1 1 1 1 2 2 3 2 1 1
5 5 5 5 4 4 3 2 2 2 1 1 1 1 1 1 1 2 2 2 2 2 1 2 2 2 1 1 1 0 0 1 2 2 1 1 1 2 2 2 3 2 2
5 5 5 5 5 4 4 3 3 2 2 2 1 1 1 1 1 1 1 1 1 1 1 1 2 1 1 1 1 1 0 0 1 2 2 1 2 2 2 3 3 3 2
5 5 4 4 4 4 4 4 3 2 2 1 2 1 1 1 1 1 0 0 0 0 0 1 1 2 1 0 1 1 2 1 1 2 3 2 2 2 2 2 2 2 2
5 5 4 4 4 5 5 4 3 3 3 2 1 1 1 1 1 1 0 0 0 0 0 1 0 1 1 1 1 1 1 1 1 1 3 3 3 2 2 2 1 1 1
Wind_Direction
110 115 123 123 124 119 119 120 119 116 111 111 111 107 104 101 102 104 103 102 101 100 100 97 91 90 87 82 79 77 75 74 77 76 75 73 74 74 70 65 75 77 81
115 118 115 114 121 119 115 114 112 111 110 112 113 113 111 108 106 106 106 105 104 101 99 97 93 89 89 89 85 83 82 82 87 88 87 81 79 79 75 69 72 81 82
114 121 117 111 112 117 117 111 107 108 107 111 115 112 111 113 113 110 108 107 105 101 97 97 94 89 87 91 90 87 88 85 90 108 128 130 105 96 89 84 77 80 80
112 120 120 116 113 112 115 114 110 107 104 103 109 110 109 109 110 110 108 110 105 100 97 96 94 90 86 86 92 92 93 77 347 296 220 124 108 107 101 94 86 82 79
108 113 119 115 112 109 111 115 114 110 107 103 99 101 106 105 105 105 103 101 95 90 93 99 98 94 88 85 86 94 84 321 314 296 46 89 92 109 106 98 94 90 87
106 105 119 117 114 110 108 109 116 113 108 104 102 99 97 99 105 101 96 94 93 90 89 98 101 99 92 88 84 69 334 306 306 276 112 101 102 115 115 107 102 98 98
103 108 119 119 117 112 108 103 104 110 110 105 101 99 98 93 89 94 95 90 92 96 98 101 106 110 101 92 89 8 324 310 287 288 87 97 110 126 128 123 120 115 110
102 105 110 116 115 111 109 104 98 98 103 105 103 100 94 89 91 87 92 94 94 92 94 100 108 124 132 127 109 307 305 307 300 316 93 111 130 138 147 142 135 138 142
103 108 110 113 115 109 107 102 99 96 98 104 108 104 100 97 98 97 93 94 96 94 86 80 92 133 166 205 255 280 290 296 301 287 156 123 140 157 173 178 186 197 188
101 109 112 107 114 116 110 102 102 105 107 116 118 120 121 131 128 115 102 100 105 107 95 72 47 241 248 253 253 268 277 291 277 268 178 142 151 175 198 207 213 220 221
101 107 109 105 99 112 116 114 116 115 116 142 142 145 155 151 133 127 119 118 131 148 173 218 254 262 260 247 244 249 263 259 258 235 138 148 166 195 213 225 229 232 234
119 113 109 107 101 100 109 113 121 118 110 107 113 122 125 110 116 122 138 157 185 201 223 249 268 265 257 233 240 241 250 254 254 216 163 166 190 212 226 234 239 238 240
126 107 96 100 100 89 96 106 97 101 99 71 84 92 91 99 112 106 121 141 202 209 213 255 254 250 251 244 229 232 254 269 268 237 160 167 188 216 233 244 247 251 251
114 105 98 100 102 88 84 101 110 96 83 66 57 60 70 77 77 84 96 79 52 306 285 288 263 266 269 267 246 238 253 266 276 289 154 171 191 222 238 245 251 256 260
109 114 117 108 108 99 80 95 91 82 82 69 47 28 38 65 59 58 61 60 32 354 333 308 291 295 285 283 284 290 292 292 292 274 172 200 210 232 248 255 256 258 261
125 125 116 112 107 106 92 94 95 88 86 72 60 42 41 51 55 50 58 43 16 352 328 308 305 305 302 315 323 318 306 301 289 285 222 214 225 234 250 264 271 272 270
123 113 115 114 105 107 93 84 93 95 96 85 68 54 51 46 46 41 52 44 20 5 349 342 336 331 338 346 333 325 324 311 298 290 274 232 223 232 243 256 273 278 278
122 114 110 110 103 100 83 67 83 87 94 89 73 66 55 43 38 37 42 31 15 15 1 348 3 352 349 350 335 320 314 304 300 294 297 273 244 243 246 251 268 279 283
133 129 119 109 107 103 92 69 82 85 80 83 70 58 49 41 30 35 38 24 19 18 8 352 22 8 347 333 313 300 297 291 288 299 302 294 254 214 229 255 262 273 281
136 133 128 122 117 108 103 86 85 88 81 80 73 61 48 41 30 26 34 25 22 29 14 359 357 7 348 318 313 307 293 284 285 288 286 315 324 293 259 262 242 281 290
138 140 140 135 130 122 126 121 114 104 98 87 83 72 52 40 31 30 29 23 23 38 14 357 358 2 1 350 343 324 303 275 256 274 309 329 339 353 8 351 318 276 292
151 150 145 143 140 136 137 134 121 118 119 113 95 79 62 44 22 29 35 27 22 35 23 16 14 3 3 19 9 334 331 336 354 330 357 5 359 12 12 12 1 4 350
156 159 154 150 143 143 141 114 102 86 74 69 93 117 102 70 45 22 18 27 22 34 32 14 9 21 345 336 10 26 354 300 328 320 323 26 22 16 2 2 357 351 353
156 150 148 151 151 150 146 148 144 147 152 167 167 152 140 121 80 39 8 20 25 26 21 358 5 346 21 327 328 338 295 281 297 312 320 349 6 11 356 347 349 346 350
143 145 144 146 151 152 156 158 155 156 157 144 138 136 146 160 150 146 58 0 4 17 350 360 352 339 347 289 278 301 306 308 261 256 285 309 330 333 328 327 338 336 345
134 136 142 149 153 154 156 162 164 162 156 153 162 174 180 192 178 165 181 263 303 308 297 302 315 310 300 285 281 278 265 273 281 273 275 288 295 296 303 302 310 325 349